Retour au catalogue

FENGYUN 1C DEB

ActifSSO
NORAD 32203·DEBRIS·🇨🇳 China

Lancé May 10, 1999 depuis Taiyuan Satellite Launch Center

Loading…

Prochains Passages (prochaines 24 heures)

TLE

FraisSource: Space-Track

Époque: Sep 14, 2026, 03:39 UTC

1 32203U 99025CUZ 26257.15224867  .00067483  00000-0  49545-3 0  9990
2 32203  96.9685 147.1572 0080030 147.0056 213.6238 15.68558722793740

Suivez FENGYUN 1C DEB en temps réel avec AllMySat

Download on the App Store